EHI
8 7 6 5 3 3 3 3 3 3 3 3 4 5 5 5 5 4 5 5 6 6 7 5 4 3 4 4 4 5 6 6 5 4 3 3 3 3 4 4 4 4 6
8 6 5 4 3 3 3 3 3 3 3 3 3 4 4 4 4 4 4 4 5 6 7 5 3 3 4 5 4 4 5 6 5 4 3 3 3 3 4 4 4 4 6
6 4 4 3 3 3 3 3 3 3 3 3 3 3 3 3 3 3 3 3 4 6 6 4 3 4 5 5 4 3 4 5 6 5 3 2 2 3 3 4 3 4 5
5 5 4 3 4 3 3 4 3 3 3 3 3 3 3 3 3 3 3 3 4 5 5 4 3 3 4 4 3 3 3 4 5 5 3 1 1 3 3 3 3 3 4
8 8 5 4 5 4 5 5 4 3 4 3 3 3 3 3 3 3 3 3 4 5 4 3 3 3 3 3 3 3 3 3 4 5 3 1 1 3 3 3 3 3 3
9 8 6 5 6 6 6 6 5 4 4 4 3 3 3 3 3 3 3 3 4 4 4 3 3 3 3 3 3 2 1 2 4 4 3 2 3 3 3 3 3 3 3
5 5 6 7 7 7 7 7 5 4 4 4 4 3 3 3 3 3 3 3 4 4 4 3 3 3 3 3 3 2 2 3 4 4 4 5 5 4 3 3 3 3 3
4 3 5 8 9 8 8 7 5 4 3 4 4 4 4 4 4 4 4 3 3 3 3 2 2 3 3 3 3 3 5 6 4 3 5 7 6 4 3 3 3 3 3
4 3 4 7 9 10 9 7 5 4 4 4 4 4 4 5 5 5 5 4 3 3 1 1 1 1 3 3 4 5 9 9 5 2 4 6 7 5 4 3 3 3 3
2 2 2 4 7 10 9 8 8 7 6 4 4 4 5 7 7 6 6 5 4 3 1 1 1 2 3 5 6 8 9 9 5 1 2 6 8 6 4 3 3 3 3
1 2 3 4 6 7 9 10 11 11 8 6 6 7 9 9 8 7 8 9 7 4 3 3 4 4 5 7 9 9 9 7 5 2 3 9 11 7 4 4 3 3 3
2 3 6 8 7 6 8 11 11 11 11 8 8 11 11 9 8 8 11 13 11 7 6 8 9 8 7 7 10 11 9 7 5 3 5 11 13 8 5 5 4 3 3
4 6 8 9 9 7 8 9 9 10 12 10 10 12 11 8 7 9 12 14 13 11 10 11 13 11 8 8 11 11 8 6 6 5 6 11 13 8 6 5 4 3 3
5 6 9 10 11 12 11 10 9 9 11 12 13 13 13 11 9 9 11 13 13 12 12 12 13 12 9 9 11 10 7 5 6 6 8 13 15 11 9 8 6 4 4
6 7 9 11 14 16 15 13 10 10 12 14 14 14 15 14 12 10 10 12 12 11 11 12 13 13 12 11 10 9 7 5 6 6 9 13 16 15 13 11 9 6 5
9 10 11 13 16 18 17 15 12 11 14 15 15 14 14 14 13 12 11 12 11 10 11 13 15 16 15 12 11 11 9 6 6 7 9 11 12 13 14 14 13 10 8
13 15 14 13 16 17 17 16 15 12 13 16 17 14 13 13 12 12 12 13 12 12 13 15 17 18 16 13 13 13 11 9 7 8 10 10 9 9 12 14 14 12 11
18 19 16 14 16 18 19 19 17 14 14 17 18 16 14 13 13 12 11 12 14 15 16 17 17 16 16 16 16 15 14 14 11 11 12 13 11 10 11 13 14 13 11
26 25 20 16 17 20 22 22 19 16 16 17 19 18 17 16 15 14 13 14 16 16 16 15 15 16 18 18 18 17 17 18 18 16 14 15 17 17 14 14 14 12 9
40 38 32 25 22 22 22 22 20 17 17 19 21 22 20 19 18 16 16 18 18 16 15 13 13 17 20 19 17 16 17 21 23 21 18 18 21 22 18 17 15 11 7
52 52 47 37 30 26 23 23 22 20 18 20 23 24 22 19 18 16 16 18 18 16 14 14 15 18 20 18 15 13 14 19 22 23 21 20 20 20 19 20 19 14 9
55 56 53 46 37 31 27 26 24 21 18 20 25 26 22 19 16 14 14 16 17 17 16 17 19 18 17 15 11 9 10 14 18 19 20 20 19 18 18 20 22 20 14
51 52 54 53 44 36 32 29 25 21 19 22 28 29 25 19 15 14 14 16 17 17 17 19 21 19 16 14 10 8 8 11 13 14 16 19 19 17 15 16 21 23 19
47 50 56 60 55 47 40 33 29 25 23 24 28 30 26 20 17 16 16 17 17 16 15 16 17 18 17 14 11 9 9 10 12 13 14 17 18 16 14 14 18 22 22
45 50 59 63 62 57 48 40 35 30 26 24 25 27 24 21 20 20 20 21 19 15 13 13 14 15 15 12 9 8 9 10 11 12 14 14 15 15 15 15 17 19 20
45 51 59 64 65 61 53 45 39 33 28 24 24 24 22 20 21 21 23 25 22 15 13 13 13 13 13 11 8 7 9 9 10 11 13 14 13 13 15 16 15 15 15
Wind_Speed
9 10 11 12 13 13 13 13 13 13 13 13 15 15 15 16 16 16 15 16 16 16 15 15 15 15 15 15 15 14 14 14 14 14 14 14 13 12 12 12 12 11 15
12 11 12 12 13 13 13 13 13 13 13 14 15 15 16 16 16 15 15 15 15 15 15 15 14 14 14 14 14 13 13 13 14 14 14 13 11 10 10 11 11 10 15
13 12 12 13 13 13 13 13 13 14 15 15 15 15 15 16 16 15 15 15 15 15 15 14 14 14 14 14 13 13 12 12 12 13 12 9 9 10 11 13 14 14 14
14 12 12 13 13 13 13 13 14 14 15 15 15 15 15 15 15 15 15 15 15 15 15 14 14 14 13 13 12 11 10 10 10 9 6 7 7 11 12 12 13 13 14
14 13 12 12 13 13 13 14 14 14 14 14 15 15 15 15 15 14 14 14 14 14 14 13 13 13 12 11 10 8 7 6 6 5 5 7 7 11 12 12 12 13 13
15 14 12 12 13 13 13 14 14 14 14 14 15 14 14 14 14 14 14 14 13 13 13 13 12 12 11 9 7 6 5 4 4 4 6 7 7 10 12 12 13 12 12
15 14 13 13 13 13 13 14 14 14 14 14 14 14 13 13 13 13 13 13 13 13 12 11 11 10 9 7 5 4 2 3 4 4 6 7 8 11 12 12 12 12 12
15 15 13 13 13 13 13 13 13 14 13 13 13 13 13 12 12 12 12 12 11 11 11 10 9 9 8 6 3 2 2 4 2 5 8 8 11 12 12 12 11 11 11
14 13 13 12 11 13 13 13 13 13 13 12 12 12 11 11 11 11 11 11 11 10 10 9 8 8 6 5 3 3 3 4 1 3 7 8 11 12 12 12 11 11 11
11 11 12 11 10 10 10 11 12 12 12 12 11 11 10 10 11 11 10 10 10 9 9 8 7 7 6 5 4 4 5 4 2 5 6 8 13 13 13 12 11 11 10
10 9 10 10 9 9 10 10 10 10 10 9 8 8 7 5 6 7 9 10 9 8 7 7 7 6 5 5 5 6 5 2 3 4 5 12 13 13 13 12 12 11 11
8 8 8 8 8 8 7 7 5 6 6 4 4 5 3 3 4 7 9 9 8 7 7 7 6 6 5 3 5 6 3 3 2 5 7 14 14 13 13 12 12 11 11
7 8 9 7 5 6 5 4 3 3 4 4 4 3 3 3 3 4 4 5 5 6 4 6 6 4 4 3 3 4 3 1 2 4 8 13 13 13 13 12 12 12 11
7 8 9 8 6 4 4 3 3 3 3 3 3 2 3 2 2 2 1 2 3 2 2 2 2 3 2 2 2 2 1 1 3 4 7 13 12 13 13 13 13 12 12
8 8 8 7 6 4 3 1 3 3 3 4 3 2 2 2 2 1 1 1 0 1 1 1 1 1 0 1 1 0 1 2 4 4 5 12 13 12 12 13 13 13 13
8 8 7 7 6 4 3 2 2 3 3 3 2 3 2 2 2 1 1 1 0 0 1 1 1 1 0 0 0 0 0 1 4 5 6 8 12 12 12 13 13 13 13
8 8 6 6 6 3 2 1 2 2 3 3 3 3 2 2 1 1 1 1 1 1 1 1 1 1 1 1 1 1 1 1 2 4 5 5 7 11 13 13 12 13 13
8 6 5 5 6 4 2 1 1 2 2 2 3 3 2 2 1 1 1 1 1 1 1 1 1 1 0 1 1 1 1 1 2 3 4 5 5 6 10 13 13 12 12
8 6 5 4 5 4 3 1 1 2 2 2 2 2 2 2 1 1 1 0 1 1 1 1 1 1 1 2 2 2 2 1 2 2 3 4 4 5 5 9 12 11 12
8 6 5 5 4 3 2 2 1 2 2 2 2 2 1 1 1 1 1 1 1 1 1 1 0 1 1 2 3 1 1 2 2 1 2 3 3 5 5 6 6 7 11
8 7 6 5 4 2 2 2 2 2 2 2 3 3 2 1 1 1 0 1 1 0 0 1 1 2 2 2 1 1 1 2 2 2 2 2 3 3 4 5 5 4 5
8 7 6 5 5 3 3 2 1 1 1 2 2 3 2 1 1 1 1 1 0 1 1 2 1 1 2 1 1 1 0 0 1 2 2 2 3 2 3 5 5 4 4
10 8 7 6 5 4 4 2 2 1 1 1 2 2 2 1 1 0 0 0 1 1 1 2 2 1 1 1 0 1 1 1 1 0 1 2 2 2 2 2 4 4 4
10 9 7 6 5 4 4 2 3 2 1 1 1 2 1 1 0 1 1 1 2 1 0 2 1 1 1 1 1 1 1 1 1 1 0 1 2 2 2 2 3 4 5
10 10 9 7 6 5 4 3 2 1 1 1 1 2 1 1 1 1 1 1 1 1 1 1 1 1 1 1 1 1 1 1 1 2 1 1 1 1 2 2 2 3 4
10 10 10 8 6 5 4 3 3 2 1 0 1 1 1 1 1 1 0 0 1 1 1 1 1 1 1 1 2 1 1 0 1 1 1 1 1 1 2 2 2 3 4
Wind_Direction
79 77 68 69 69 71 76 77 78 83 87 93 95 96 97 97 99 101 102 107 109 111 111 111 110 109 110 110 110 111 112 112 111 112 112 111 112 113 116 120 116 111 113
91 84 72 73 74 75 80 80 80 82 87 94 98 98 100 100 100 99 99 102 107 109 109 110 111 111 112 112 112 114 113 113 116 118 117 113 112 112 114 117 109 116 118
95 89 78 73 78 80 82 82 82 82 87 94 99 100 101 102 101 100 101 103 104 104 107 109 110 111 112 113 115 117 119 123 128 132 129 120 114 111 110 110 113 118 119
97 90 80 80 82 83 84 84 85 86 89 93 96 99 100 101 101 102 102 104 107 106 106 107 108 109 110 113 116 121 128 134 143 150 138 123 118 117 118 118 120 120 122
94 91 86 84 85 85 88 88 89 90 92 94 95 97 99 100 101 101 101 104 107 109 110 108 107 108 111 115 121 128 136 148 159 149 116 111 110 124 125 125 124 124 124
96 93 92 90 90 89 92 93 92 92 92 93 94 95 97 100 101 102 103 104 107 109 110 110 110 110 111 119 128 137 151 170 194 145 127 121 122 132 134 133 130 129 127
100 99 99 94 92 94 98 99 96 96 96 95 97 97 100 102 103 104 104 106 108 108 109 112 115 116 119 124 134 153 184 234 205 141 125 121 128 136 136 136 136 134 133
101 102 104 98 96 99 101 103 101 99 99 100 101 102 103 104 105 107 107 107 109 112 114 114 118 121 125 131 148 189 251 273 179 125 123 124 136 140 140 140 139 136 136
101 106 110 112 106 103 101 104 104 103 103 105 108 109 112 113 113 112 111 110 111 116 119 120 121 125 133 150 180 231 263 274 235 132 122 127 140 145 146 146 144 142 141
99 105 108 111 115 117 113 110 112 112 112 113 114 115 117 120 119 119 118 116 116 119 125 128 131 139 154 174 200 233 256 273 192 129 121 136 146 151 151 151 151 151 148
96 103 112 118 123 119 115 116 123 124 122 121 123 128 131 134 128 131 115 120 123 129 136 142 149 157 168 191 220 241 261 240 133 120 124 143 151 153 154 155 157 158 156
107 107 105 110 115 113 111 122 131 124 125 133 123 139 145 118 111 116 125 133 140 147 153 165 177 181 194 199 217 234 240 202 148 123 133 149 154 157 159 161 163 164 164
108 107 100 90 84 95 108 125 117 111 122 120 108 115 117 111 122 122 141 150 166 174 186 180 198 209 205 194 191 204 214 176 130 124 141 151 157 161 165 168 171 172 173
103 101 107 103 86 74 80 97 112 117 124 116 114 109 102 100 99 114 146 162 177 178 187 189 212 224 220 184 199 196 192 162 125 124 147 156 160 166 171 175 178 180 181
111 103 95 95 96 93 74 67 99 99 109 113 123 110 105 109 102 101 87 61 161 149 158 215 250 272 340 233 231 178 148 109 126 133 145 162 165 171 175 181 185 187 188
121 113 112 110 102 99 110 106 109 115 113 115 111 113 110 106 108 109 151 175 234 230 151 219 229 228 235 278 267 253 193 140 132 139 149 167 174 177 181 186 191 193 194
121 115 119 123 114 114 109 136 130 128 125 123 119 123 131 123 134 153 189 187 197 225 190 206 224 195 191 205 217 227 192 161 147 146 153 163 174 185 188 191 194 197 198
121 122 132 129 123 126 113 72 98 107 111 119 127 129 142 146 168 211 200 156 221 229 208 198 215 204 177 205 225 234 186 160 164 164 162 170 173 180 190 195 195 196 199
126 127 128 112 123 136 143 155 149 123 116 124 122 122 141 161 178 202 189 124 260 246 232 233 141 172 212 225 224 220 215 189 181 189 160 161 164 167 171 188 192 194 197
136 137 136 133 131 143 142 157 174 143 143 134 115 119 140 177 208 216 178 187 259 298 333 5 282 223 224 237 244 204 193 170 172 173 172 161 163 171 171 171 179 193 195
146 148 148 149 146 156 152 170 179 157 158 143 141 139 163 192 192 244 234 178 226 245 287 264 259 252 244 226 222 222 216 183 153 157 178 162 166 171 160 160 169 177 189
154 154 153 159 160 169 161 172 185 152 169 145 121 134 158 162 202 199 160 217 196 192 254 273 263 256 252 219 207 185 180 66 266 195 171 180 175 164 162 169 166 168 168
162 163 168 162 160 169 169 169 172 163 183 137 138 153 169 176 197 355 226 295 283 241 235 269 283 274 269 281 210 163 159 195 233 144 180 161 148 144 147 140 146 145 145
166 165 158 157 159 164 167 171 188 175 167 154 152 133 154 168 231 194 208 219 261 276 213 258 205 288 279 288 261 220 183 157 169 162 61 115 137 138 131 148 142 145 143
169 164 160 158 158 158 167 165 179 190 180 149 124 125 159 176 224 276 207 224 257 280 270 296 356 324 316 301 300 284 223 203 197 176 180 157 127 120 130 126 121 130 134
169 164 160 156 159 162 168 164 176 201 195 130 135 140 206 182 178 269 159 330 264 263 244 278 285 297 306 317 315 319 320 235 237 190 172 164 146 130 117 106 107 111 117